Location: Cahas Mountain Overlook
(37.0833°N, 80.1000°W)
Time: 07:10:41
(UTC-04:00)

Tiros 1 - Pass Details

Date: 14 February 2026
Orbit: 618 x 650 km, 48.4° (Epoch: 14 March)

Event Time Altitude Azimuth Distance (km) Brightness Sun altitude
Rises 16:56:50 0° 299° (WNW) 2,884 11.0 10.9°
Reaches altitude 10° 16:59:15 10° 292° (WNW) 1,977 10.4 10.4°
Maximum altitude 17:03:29 40° 223° (SW) 914 9.0 9.7°
Drops below altitude 10° 17:07:44 10° 154° (SSE) 1,977 9.7 8.9°
Sets 17:10:08 0° 146° (SSE) 2,884 10.4 8.4°
